[[{"header":{"parameterUnit":"m.s-1","parameterCategory":1,"la1":30.2991,"la2":30.254,"lo1":-89.0895,"lo2":-89.0444,"dy":0.0017,"dx":0.0017,"nx":28,"ny":28,"refTime":"2026-02-04T03:00:00:Z","depth":0,"parameterNumber":2,"parameterNumberName":"U-component_of_WINDS"},"data":[0,0,0,0,0,0,0,0,0,0,0,0,0,0,0,0,0,0,0,0,0,0,0,0,0,0,0,0,0,0,0,0,0,0,0,0,0,0,0,0,0,0,0,0,0,0,0,0,0,0,0,0,0,0,0,0,0,0,3.5871,3.5875,0,3.6303,3.6308,3.6313,3.6349,3.6344,3.6339,3.6335,3.68,3.6816,3.6833,0,0,0,0,0,0,0,0,0,0,0,0,0,3.5102,3.5116,3.587,3.5876,3.5881,3.6302,3.6308,3.6314,3.635,3.6344,3.6338,3.6333,3.6795,3.6814,3.6835,0,0,0,0,0,0,0,0,0,0,0,0,0,3.5476,3.512,3.5869,3.5949,3.596,3.6301,3.6309,3.6316,3.6351,3.6344,3.6337,3.633,3.6788,3.6812,3.6837,3.7135,0,0,3.6914,3.6925,0,0,0,0,0,0,0,0,3.5455,3.5504,3.5932,3.5944,3.5958,3.6264,3.6208,3.6591,3.6353,3.6203,3.6335,3.6327,3.6629,3.6667,3.6764,3.7157,3.7177,3.6917,3.6932,3.6943,3.695,0,0,0,0,0,0,0,3.5429,3.5486,3.6042,3.5938,3.5954,3.5972,3.6017,3.6281,3.6452,3.6216,3.6219,3.6269,3.6635,3.674,3.6776,3.7183,3.6916,3.6938,3.6954,3.6964,3.7854,3.7862,0,0,0,0,0,0,3.5384,3.5464,3.6029,3.6055,3.5683,3.5992,3.6042,3.6174,3.6449,3.6483,3.6275,3.6269,3.67,3.6746,3.6792,3.7165,3.6942,3.6966,3.6981,3.7846,3.7856,3.7865,0,0,0,0,0,0,3.5367,3.5434,3.6011,3.5761,3.5835,3.6012,3.616,3.6186,3.629,3.6493,3.6526,3.6349,3.6697,3.6757,3.705,3.7182,3.6977,3.7,3.7836,3.7849,3.7861,3.791,0,0,0,0,0,0,3.5345,3.5428,3.5535,3.5762,3.5848,3.6254,3.6167,3.6199,3.6331,3.6328,3.6571,3.6605,3.6696,3.7013,3.7075,3.7213,3.702,3.7825,3.7842,3.7857,3.7897,3.7923,3.7944,0,0,0,0,0,3.5318,3.5535,3.5541,3.5609,3.5986,3.6261,3.6311,3.6405,3.6341,3.6457,3.6588,3.6597,3.7156,3.7042,3.7113,3.726,3.7817,3.7837,3.7856,3.7887,3.7918,3.7944,0,0,0,0,0,0,3.5324,3.5565,3.5575,3.587,3.6044,3.6266,3.6413,3.6433,3.6634,3.6624,3.6739,3.6794,3.7086,3.7203,3.7071,3.7569,3.7482,3.7516,3.7481,3.7512,3.7535,3.7503,3.7041,0,0,0,0,0,3.5358,3.5554,3.5758,3.6,3.6086,3.6234,3.6358,3.6415,3.6603,3.6679,3.6832,3.7021,3.7241,3.7382,3.7595,3.7914,3.7974,3.8052,3.8075,3.8093,3.8123,3.8311,3.8351,3.7929,3.7928,3.7928,0,0,3.5435,3.5591,3.5708,3.6005,3.6146,3.6356,3.6296,3.6518,3.6678,3.6715,3.7001,3.7121,3.7341,3.765,3.7795,3.7757,3.8253,3.8118,3.8131,3.8152,3.8335,3.8375,3.841,3.7942,3.7939,3.7937,0,0,3.568,3.5814,3.6033,3.6176,3.639,3.6489,3.6542,3.6763,3.6842,3.713,3.7165,3.7362,3.7734,3.7891,3.802,3.8334,3.8354,3.8401,3.8525,3.8707,3.8741,3.8771,3.8891,3.8931,3.8429,3.843,3.843,0,3.5749,3.6056,3.6145,3.6367,3.6502,3.6541,3.677,3.6908,3.7183,3.7279,3.7231,3.7705,3.7855,3.8207,3.8284,3.8385,3.8457,3.8374,3.8727,3.8758,3.8788,3.8904,3.8948,3.8434,3.8434,3.8433,3.8433,0,3.6136,3.635,3.6503,3.6762,3.6914,3.7139,3.7271,3.7416,3.7463,3.757,3.7869,3.8051,3.8305,3.8392,3.8441,3.8756,3.8726,3.8701,3.8617,3.8831,3.8943,3.8987,3.8441,3.8439,3.8438,3.8437,0,0,3.6394,3.6702,3.6758,3.688,3.7122,3.7294,3.7526,3.7768,3.7895,3.8086,3.829,3.8608,3.8588,3.8735,3.8803,3.8962,3.921,3.892,3.8927,3.8973,3.9578,3.9598,3.9646,3.9223,3.9232,3.9239,3.9562,0,3.6671,3.7075,3.7166,3.7518,3.7724,3.7768,3.7972,3.8148,3.8256,3.8454,3.8578,3.8803,3.8756,3.8847,3.9005,3.9145,3.9334,3.9123,3.9424,3.9434,3.937,3.9703,3.9724,4.0019,3.9605,3.9612,3.9618,0,3.7046,3.7241,3.7612,3.7835,3.7925,3.8104,3.8339,3.8524,3.873,3.8799,3.8965,3.9019,3.9274,3.9174,3.9533,3.9388,3.9518,3.9606,3.9621,3.9655,3.954,3.9753,4.0114,4.0161,3.9685,3.968,3.9675,0,3.7206,3.7562,3.7832,3.7935,3.8199,3.8326,3.8444,3.8642,3.8785,3.8993,3.9089,3.9326,3.9458,3.9646,3.9767,3.9682,4.012,4.0028,4.0192,4.019,4.0284,4.0277,4.0677,4.036,4.0359,4.0358,4.0357,0,3.7508,3.7735,3.7908,3.8074,3.8335,3.8442,3.8699,3.8819,3.8996,3.9195,3.925,3.9437,3.9583,3.9794,3.9891,4.0179,4.0237,4.0307,4.0331,4.0305,4.0297,4.0394,4.0379,4.037,4.0368,4.0365,4.0363,0,3.7729,3.7853,3.8152,3.8378,3.8441,3.8623,3.8822,3.8992,3.9102,3.9354,3.942,3.9598,3.985,3.9988,4.0305,4.0371,4.0695,4.0706,4.0623,4.0635,4.0793,4.0779,4.1273,4.1347,4.0975,4.0979,4.0981,0,3.7915,3.8091,3.8336,3.8469,3.8588,3.8803,3.8949,3.9065,3.9216,3.9468,3.9611,3.9864,4.0072,4.0475,4.0639,4.0885,4.0906,4.1063,4.0944,4.0914,4.0917,4.0906,4.0929,4.1084,4.1088,4.109,4.1093,0,3.8235,3.8289,3.8492,3.8721,3.8892,3.9079,3.9265,3.9374,3.9523,3.9693,3.9947,4.0109,4.0433,4.0688,4.0948,4.1081,4.1117,4.1128,4.1181,4.1157,4.1105,4.1142,4.0685,4.1117,4.1115,4.1113,4.1112,4.1111,3.8449,3.861,3.8809,3.9037,3.9189,3.9363,3.9535,3.9667,3.9879,4.0147,4.0205,4.0477,4.069,4.1042,4.1182,4.1404,4.1375,4.1449,4.1469,4.1486,4.1496,4.1065,4.1451,4.1451,4.145,4.145,4.145,0,3.8777,3.8907,3.9116,3.9373,3.9556,3.9565,3.9774,3.9929,4.0164,4.0356,4.056,4.0859,4.1109,4.1293,4.1551,4.1694,4.1718,4.1759,4.1752,4.1784,4.1503,4.1435,4.1736,4.1736,4.1736,4.1735,4.1735,4.1735,3.8969,3.9244,3.9323,3.9679,3.9811,4.0072,4.0192,4.0357,4.0511,4.0839,4.1044,4.1161,4.1354,4.1627,4.1861,4.191,4.2006,4.2046,4.2098,4.1833,4.1803,4.1774,4.171,4.2064,4.2065,4.2362,4.2364,4.2366]},{"header":{"parameterUnit":"m.s-1","parameterCategory":1,"la1":30.2991,"la2":30.254,"lo1":-89.0895,"lo2":-89.0444,"dy":0.0017,"dx":0.0017,"nx":28,"ny":28,"refTime":"2026-02-04T03:00:00:Z","depth":0,"parameterNumber":3,"parameterNumberName":"V-component_of_WINDS"},"data":[0,0,0,0,0,0,0,0,0,0,0,0,0,0,0,0,0,0,0,0,0,0,0,0,0,0,0,0,0,0,0,0,0,0,0,0,0,0,0,0,0,0,0,0,0,0,0,0,0,0,0,0,0,0,0,0,0,0,-4.8988,-4.8987,0,-4.8836,-4.8834,-4.8832,-4.8803,-4.8804,-4.8805,-4.8806,-4.8624,-4.8618,-4.8612,0,0,0,0,0,0,0,0,0,0,0,0,0,-4.923,-4.9225,-4.8988,-4.8986,-4.8985,-4.8836,-4.8834,-4.8832,-4.8802,-4.8804,-4.8805,-4.8807,-4.8626,-4.8619,-4.8611,0,0,0,0,0,0,0,0,0,0,0,0,0,-4.9105,-4.9224,-4.8989,-4.8953,-4.8948,-4.8837,-4.8834,-4.8831,-4.8802,-4.8804,-4.8806,-4.8808,-4.8628,-4.8619,-4.861,-4.8517,0,0,-4.8583,-4.8579,0,0,0,0,0,0,0,0,-4.9112,-4.9096,-4.896,-4.8955,-4.8949,-4.8841,-4.8852,-4.8725,-4.8801,-4.8856,-4.8806,-4.8808,-4.8693,-4.8678,-4.8645,-4.8508,-4.85,-4.8582,-4.8576,-4.8573,-4.857,0,0,0,0,0,0,0,-4.9121,-4.9102,-4.8927,-4.8958,-4.8951,-4.8936,-4.892,-4.8828,-4.8765,-4.8852,-4.885,-4.8833,-4.869,-4.8654,-4.864,-4.8497,-4.8582,-4.8574,-4.8569,-4.8565,-4.8272,-4.827,0,0,0,0,0,0,-4.9139,-4.911,-4.8932,-4.8923,-4.9038,-4.893,-4.8913,-4.8873,-4.8766,-4.8752,-4.8832,-4.8832,-4.8668,-4.8651,-4.8634,-4.8515,-4.8573,-4.8564,-4.8559,-4.8274,-4.8272,-4.8269,0,0,0,0,0,0,-4.9145,-4.9124,-4.8938,-4.9016,-4.8991,-4.8924,-4.888,-4.8869,-4.8833,-4.8751,-4.8737,-4.8808,-4.8669,-4.8646,-4.8547,-4.8509,-4.856,-4.8552,-4.8277,-4.8274,-4.827,-4.8279,0,0,0,0,0,0,-4.9152,-4.9126,-4.9096,-4.9016,-4.8987,-4.8862,-4.8878,-4.8865,-4.8821,-4.882,-4.8725,-4.8711,-4.8669,-4.8561,-4.8538,-4.8497,-4.8545,-4.828,-4.8276,-4.8271,-4.8282,-4.8276,-4.8271,0,0,0,0,0,-4.9161,-4.9099,-4.9094,-4.9073,-4.8949,-4.886,-4.8843,-4.8803,-4.8818,-4.8783,-4.873,-4.8714,-4.8518,-4.8551,-4.8525,-4.8481,-4.8282,-4.8277,-4.8272,-4.8284,-4.8277,-4.8272,0,0,0,0,0,0,-4.9166,-4.9087,-4.9081,-4.8994,-4.8935,-4.8855,-4.881,-4.8797,-4.8726,-4.8728,-4.8673,-4.8652,-4.8555,-4.8507,-4.8547,-4.8382,-4.8399,-4.8389,-4.8418,-4.841,-4.8405,-4.8417,-4.8537,0,0,0,0,0,-4.9159,-4.9102,-4.9032,-4.896,-4.8933,-4.8877,-4.8836,-4.8812,-4.8745,-4.8717,-4.8657,-4.8585,-4.8507,-4.8456,-4.838,-4.8275,-4.8251,-4.8231,-4.8226,-4.8222,-4.8212,-4.815,-4.814,-4.8252,-4.8252,-4.8252,0,0,-4.914,-4.909,-4.9055,-4.8961,-4.8912,-4.8846,-4.8855,-4.8785,-4.8733,-4.8703,-4.8609,-4.8561,-4.8477,-4.8375,-4.8326,-4.8332,-4.8177,-4.8216,-4.8213,-4.8205,-4.8144,-4.8133,-4.8124,-4.8248,-4.8249,-4.8249,0,0,-4.9072,-4.903,-4.8966,-4.8919,-4.8849,-4.8813,-4.8798,-4.872,-4.8691,-4.8597,-4.8573,-4.8505,-4.8373,-4.8314,-4.8267,-4.8178,-4.8158,-4.8154,-4.8125,-4.8065,-4.8056,-4.8048,-4.8013,-4.8002,-4.8145,-4.8145,-4.8145,0,-4.9054,-4.8963,-4.8932,-4.8865,-4.8822,-4.8802,-4.8732,-4.8684,-4.8589,-4.8556,-4.8566,-4.8401,-4.8342,-4.8225,-4.8204,-4.8167,-4.8142,-4.8163,-4.8062,-4.8053,-4.8045,-4.801,-4.7998,-4.8144,-4.8144,-4.8144,-4.8144,0,-4.8944,-4.888,-4.8835,-4.8754,-4.8705,-4.8636,-4.8589,-4.8542,-4.8521,-4.8481,-4.8382,-4.8313,-4.8222,-4.8192,-4.8167,-4.8069,-4.8075,-4.8075,-4.809,-4.8035,-4.8001,-4.7988,-4.8144,-4.8144,-4.8144,-4.8144,0,0,-4.8872,-4.8779,-4.8762,-4.8725,-4.8647,-4.8592,-4.852,-4.844,-4.8399,-4.8333,-4.8267,-4.8157,-4.8156,-4.8102,-4.807,-4.8019,-4.7949,-4.8023,-4.802,-4.8009,-4.7832,-4.7832,-4.7818,-4.7937,-4.7935,-4.7933,-4.7838,0,-4.8793,-4.8674,-4.8645,-4.8539,-4.8477,-4.8457,-4.8393,-4.8333,-4.8294,-4.8228,-4.818,-4.8103,-4.811,-4.8077,-4.8025,-4.7969,-4.7912,-4.7975,-4.7867,-4.7863,-4.7888,-4.7801,-4.78,-4.7714,-4.7825,-4.7823,-4.7821,0,-4.8684,-4.8627,-4.8518,-4.8448,-4.842,-4.8365,-4.8289,-4.823,-4.8159,-4.8133,-4.8075,-4.8049,-4.7965,-4.7988,-4.7867,-4.7911,-4.7864,-4.7829,-4.7825,-4.781,-4.7837,-4.7781,-4.7686,-4.7673,-4.7801,-4.7803,-4.7804,0,-4.8641,-4.8534,-4.8455,-4.8424,-4.8341,-4.8302,-4.8264,-4.8197,-4.815,-4.808,-4.8048,-4.7966,-4.792,-4.7853,-4.7802,-4.7824,-4.7683,-4.7703,-4.7653,-4.7654,-4.7622,-4.7624,-4.7516,-4.7597,-4.7597,-4.7597,-4.7598,0,-4.8554,-4.8487,-4.8435,-4.8386,-4.8309,-4.8273,-4.8194,-4.8153,-4.8094,-4.8031,-4.8005,-4.7944,-4.7883,-4.7811,-4.777,-4.7674,-4.7653,-4.7624,-4.7613,-4.7625,-4.7628,-4.7591,-4.7594,-4.7594,-4.7595,-4.7595,-4.7596,0,-4.849,-4.8454,-4.8367,-4.8298,-4.8279,-4.8225,-4.8161,-4.8108,-4.807,-4.799,-4.7968,-4.7904,-4.7818,-4.7763,-4.7651,-4.7623,-4.7517,-4.7509,-4.7544,-4.7538,-4.7491,-4.7495,-4.7353,-4.733,-4.7429,-4.7429,-4.7428,0,-4.8437,-4.8386,-4.8315,-4.8276,-4.824,-4.8175,-4.813,-4.8091,-4.8043,-4.796,-4.7915,-4.7831,-4.7761,-4.7624,-4.756,-4.7474,-4.7461,-4.7417,-4.7447,-4.746,-4.7456,-4.7459,-4.7452,-4.7411,-4.741,-4.741,-4.7409,0,-4.8343,-4.8329,-4.827,-4.8204,-4.8153,-4.8097,-4.804,-4.8006,-4.7955,-4.7901,-4.782,-4.7766,-4.7657,-4.757,-4.7478,-4.7428,-4.7407,-4.7401,-4.7384,-4.7394,-4.7416,-4.7401,-4.7528,-4.7403,-4.7404,-4.7404,-4.7405,-4.7405,-4.8281,-4.8235,-4.8179,-4.8113,-4.8068,-4.8016,-4.7964,-4.7922,-4.7856,-4.777,-4.7748,-4.7661,-4.7587,-4.7464,-4.7413,-4.7337,-4.7341,-4.7318,-4.7311,-4.7305,-4.7304,-4.7432,-4.732,-4.732,-4.732,-4.732,-4.732,0,-4.8184,-4.8149,-4.8089,-4.8015,-4.7961,-4.7958,-4.7894,-4.7846,-4.7774,-4.7712,-4.7646,-4.7549,-4.7465,-4.7398,-4.731,-4.7262,-4.7249,-4.7239,-4.724,-4.7228,-4.7307,-4.7329,-4.7251,-4.7251,-4.7251,-4.7251,-4.7251,-4.7251,-4.8128,-4.805,-4.8029,-4.7925,-4.7887,-4.781,-4.7773,-4.7722,-4.7673,-4.757,-4.7504,-4.7464,-4.7397,-4.7304,-4.7224,-4.7206,-4.7172,-4.7164,-4.7142,-4.7216,-4.7223,-4.723,-4.7251,-4.7158,-4.7158,-4.707,-4.7069,-4.7068]}]]